Location: Treviso
(45.6669°N, 12.2430°E)
Time: 10:30:45
(UTC+02:00)

ISS - Pass Details

Date: 26 June 2022
Orbit: 414 x 420 km, 51.6° (Epoch: 02 July)

Event Time Altitude Azimuth Distance (km) Brightness Sun altitude
Exits shadow 04:08:12 - 172° (S) 1,731 -1.0 -10.4°
Reaches altitude 10° 04:09:18 10° 157° (SSE) 1,490 -1.2 -10.3°
Maximum altitude 04:10:42 12° 132° (SE) 1,366 -1.2 -10.1°
Drops below altitude 10° 04:12:07 10° 107° (ESE) 1,497 -0.6 -10.0°
Sets 04:15:14 0° 76° (ENE) 2,367 1.1 -9.6°
